Regional Weather Roundup
Issued by NWS

Home | Current Version | Previous Version | Graphics & Text | Print | Product List | Glossary On
Versions: 1 2 3 4 5 6 7 8 9 10 11 12 13 14 15 16 17 18 19 20 21 22 23 24 25 26 27 28 29 30 31 32 33 34 35 36 37 38 39 40 41 42 43 44 45 46 47 48 49 50
000
ASUS45 KSLC 030910
RWRUT
UTAH REGIONAL WEATHER ROUNDUP
NATIONAL WEATHER SERVICE SALT LAKE CITY UT
300 AM MDT MON AUG 03 2015

UTZ001>011-023>025-031000-

NORTHERN UTAH

CITY           SKY/WX    TMP DP  RH WIND       PRES   REMARKS
BRIGHAM CITY   CLOUDY    77  45  32 S15       30.00R
HILL AFB       LGT RAIN  72  54  53 S23       30.06R
LOGAN          CLEAR     72  47  40 N5        29.99R
OGDEN          CLOUDY    73  52  47 S21G31    30.02R
PROVO AIRPORT  CLOUDY    63  55  77 N8        30.09F
SALT LAKE CITY LGT RAIN  70  56  61 S17G26    30.01R
VERNAL         LGT RAIN  63  58  83 MISG      30.09F
WENDOVER       CLOUDY    81  39  22 S5        29.97S
HEBER CITY     RAIN      59  55  88 E3        30.15S
WEST JORDAN    CLOUDY    64  57  77 S16       30.08R

$$

UTZ012>022-026-027-031000-

SOUTHERN/CENTRAL UTAH

CITY           SKY/WX    TMP DP  RH WIND       PRES   REMARKS
BLANDING       PTCLDY    61  60  96 CALM      30.23S
BRYCE CANYON   PTCLDY    47  44  90 CALM      30.26S
CEDAR CITY     CLOUDY    62  47  57 N8        30.12R
DELTA          CLOUDY    61  58  91 NE7       30.10F
HANKSVILLE     PTCLDY    61  61 100 CALM      30.07S
MILFORD        CLOUDY    67  51  56 NW12      30.09S
MOAB/CYNLANDS  PTCLDY    64  62  93 CALM      30.04S
PRICE          HVY RAIN  59  56  89 N6        30.11F FOG
ST GEORGE      CLOUDY    79  50  36 E10       29.92S
KANAB          CLEAR     64  54  68 N12       30.13S

$$

REGIONAL REPORTS     COLORADO/ARIZONA

CITY           SKY/WX    TMP DP  RH WIND       PRES   REMARKS
CRAIG, CO      CLOUDY    60 N/A N/A CALM      30.16S
GRAND JUNCTION CLOUDY    65  56  72 S6        30.07R
RIFLE          CLOUDY    62  58  86 CALM      30.12F
MONTROSE       CLOUDY    61  57  87 SW5       30.16R
CORTEZ         CLEAR     61  56  83 S9        30.18R
PAGE, AZ       CLEAR     68  60  75 CALM      30.04F
GRAND CANYON   CLEAR     51  49  92 CALM      30.22S
KINGMAN        CLEAR     80  44  27 VRB3      29.95S
FLAGSTAFF      CLEAR     50  49  96 CALM      30.26S

$$

REGIONAL REPORTS    NEVADA/IDAHO/WYOMING

CITY           SKY/WX    TMP DP  RH WIND       PRES   REMARKS
LAS VEGAS, NV  CLEAR     87  40  19 SW7       29.78R
ELY            CLOUDY    61  45  55 SE9       30.15S
ELKO           CLOUDY    68  50  52 SW14      30.07S
POCATELLO, ID  CLEAR     77  43  29 VRB7      29.93F
BURLEY         CLOUDY    76  42  29 W15       29.88S
EVANSTON, WY   MOCLDY    62  46  55 SW12      30.19F
ROCK SPRINGS   CLOUDY    63  46  54 SE3       30.16S
KEMMERER       CLOUDY    64  37  36 SW7       30.18S

$$


USA.gov is the U.S. government's official web portal to all federal, state and local government web resources and services.